Regional Weather Roundup
Issued by NWS State College, PA

Home | Current Version | Previous Version | Text Only | Print | Product List | Glossary On
Versions: 1 2 3 4 5 6 7 8 9 10 11 12 13 14 15 16 17 18 19 20 21 22 23 24 25 26 27 28 29 30 31 32 33 34 35 36 37 38 39 40 41 42 43 44 45 46 47 48 49 50
000
ASUS41 KCTP 172203
RWRCTP

REGIONAL WEATHER ROUNDUP
NATIONAL WEATHER SERVICE STATE COLLEGE PA
600 PM EDT WED SEP 17 2014

Note: "fair" indicates few or no clouds below 12,000 feet with no
significant weather and/or obstructions to visibility.

* = STATION THAT DOES NOT REPORT PRECIPITATION /E.G. RAIN...SNOW...ETC/
    THUNDER OR FOG.

PAZ002>004-007>009-013>016-020>023-029>032-172300-
WESTERN PENNSYLVANIA

CITY           SKY/WX    TMP DP  RH WIND       PRES   REMARKS
ERIE           SUNNY     65  47  52 W8        29.99S
MEADVILLE      PTSUNNY   64  46  52 CALM      29.99F
FRANKLIN*      MOSUNNY   64  45  48 W7        30.01S
NEW CASTLE     FAIR      67  46  46 CALM      30.00S
BEAVER COUNTY  CLOUDY    68  46  45 W6        29.99F
BUTLER*        MOSUNNY   66  46  48 W5        30.00F
PITTSBURGH INT PTSUNNY   66  47  50 W5        29.98S
PITTSBURGH     MOSUNNY   67  46  47 W3        29.97F
INDIANA*       PTSUNNY   68  48  49 VRB5      30.02S
LATROBE        MOSUNNY   66  48  52 W6        29.99S
WASHINGTON CO* MOSUNNY   68  50  52 W6        29.99S
$$

PAZ004>006-010>012-017>019-024>028-033>037-041-042-045-046-049>053-172300-
CENTRAL PENNSYLVANIA

CITY           SKY/WX    TMP DP  RH WIND       PRES   REMARKS
BRADFORD       MOSUNNY   62  41  46 NW7       30.00S
DUBOIS         PTSUNNY   62  46  55 W8        29.99S
CLEARFIELD     SUNNY     66  46  48 W5        29.99S
JOHNSTOWN      SUNNY     63  46  54 NW9       30.00S
ALTOONA        MOSUNNY   66  46  48 SE3       29.98F
STATE COLLEGE  MOSUNNY   66  48  52 SW6       29.98R
WILLIAMSPORT   MOSUNNY   68  48  48 S3        29.96S
SELINSGROVE    SUNNY     68  49  50 CALM      29.98S
FT INDIANTOWN  SUNNY     70  46  41 VRB3      29.98S
CAPITAL CITY   PTSUNNY   72  44  36 CALM      29.97S
HARRISBURG     MOSUNNY   68  54  60 CALM      29.97R
YORK           PTSUNNY   71  48  43 CALM      29.97S
$$

PAZ038>040-043-044-047-048-054-055-060>062-067>071-172300-
EASTERN PENNSYLVANIA

CITY           SKY/WX    TMP DP  RH WIND       PRES   REMARKS
SCRANTON       PTSUNNY   66  41  40 SW6       29.98S
MOUNT POCONO   SUNNY     62  41  46 W7        30.00S
ALLENTOWN      SUNNY     70  44  39 W7        29.97S
QUAKERTOWN*    PTCLDY    68  48  49 W3        29.99R
READING        MOSUNNY   72  44  36 W8        29.97R
LANCASTER      PTSUNNY   71  45  39 NW6       29.97S
COATESVILLE    CLEAR     68  50  52 SW3       29.99S
POTTSTOWN      SUNNY     69  48  47 W5        29.99S
BLUE BELL      MOSUNNY   72  48  43 CALM      29.96S
DOYLESTOWN     MOSUNNY   69  46  43 CALM      29.97S
WILLOW GROVE   NOT AVBL
NORTH PHILA    PTSUNNY   73  43  33 W7        29.98S
PHILADELPHIA   MOSUNNY   73  46  38 SW10      29.97S
$$



USA.gov is the U.S. government's official web portal to all federal, state and local government web resources and services.